Torna al catalogo

TAURUS DEB

AttivoSSO
NORAD 26035·DEBRIS·🇺🇸 United States

Lanciato Dec 21, 1999 da Vandenberg Space Force Base

Loading…

Prossimi Passaggi (prossime 24 ore)

TLE

AggiornatoSource: Space-Track

Epoca: Sep 14, 2026, 09:17 UTC

1 26035U 99070D   26257.38691436  .00000301  00000-0  65422-4 0  9990
2 26035  98.3940  48.7679 0024439 219.2261 170.3175 14.65059915425502

Traccia TAURUS DEB in tempo reale con AllMySat

Download on the App Store